Find Starlink 5176

NORAD ID: 54053 Int'l Des: 2022-136 Owner: SPXS Country: US Constellation: starlink operational
LEOCIRCULAR

現在のビュー

3D地球を読み込み中...

About Starlink 5176

Starlink 5176 (NORAD 54053) is a starlink constellation satellite (v1.5) launched Oct 20, 2022 by SPXS of US. It operates in LEO, CIRCULAR orbit with a mass of 305.00 kg.

次回通過

Passes for default location (London). Set your location on the main map for personalized predictions.

高度履歴

Loading altitude history...

軌道要素

1 54053U 22136C 26254.29431478 -.00000222 00000-0 45978-5 0 9993
2 54053 53.1593 217.7163 0001212 81.0855 279.0284 15.31700136215046
Epoch: Sep 11, 2026 • Age: 22 hours

現在のステータス

高度 474.2 km
遠地点 / 近地点 N/A
速度 7.63 km/s
衛星直下点 42.89°N, 172.61°W
打ち上げ日 Oct 20, 2022
運用期間 3.8 years
タイプ internet

技術仕様

分類 Payload
質量 305.00 kg
乾燥質量 290.00 kg
総質量 305.00 kg
長さ 0.20 m
直径 2.80 m
スパン 9.00 m
形状 Box + pan
製造者 SPXS
バスタイプ Starlink
フェーズステータス In Orbit
所有者/国 SPXS/US

Most Searched